DateTime,DeltaTime,Roll,TargetAngle,Position,Power
2022-06-02 13:43:59.474,0,30.34,28,35,28.77
2022-06-02 13:43:59.589,0.114996358752251,31.32,28,35,29.41
2022-06-02 13:43:59.703,0.228996947407722,29.53,28,34,30.05
2022-06-02 13:43:59.818,0.343993306159973,19.76,28,25,25.69
2022-06-02 13:43:59.933,0.45899972319603,6.83,-22,17,90
2022-06-02 13:44:00.047,0.573000311851501,-3.88,-22,9,90
2022-06-02 13:44:00.162,0.687996670603752,-8.7,-22,2,90
2022-06-02 13:44:00.277,0.802993029356003,-7.14,-19.6,-5,67.39
2022-06-02 13:44:00.391,0.916993618011475,-2.17,13.7,-7,-90
2022-06-02 13:44:00.506,1.03200003504753,0.67,14.88,0,-84.96
2022-06-02 13:44:00.621,1.14699639379978,0.07,-2.36,8,40.53
2022-06-02 13:44:00.735,1.26099698245525,-0.45,-3.93,9,56.81
2022-06-02 13:44:00.850,1.3759933412075,0.67,7.35,5,-7.4
2022-06-02 13:44:00.961,1.48699656128883,1.78,11.46,4,-34.35
2022-06-02 13:44:01.075,1.60099714994431,1.27,2.47,5,15.69
2022-06-02 13:44:01.189,1.71499773859978,0.18,-4.13,5,43.36
2022-06-02 13:44:01.305,1.83099992573261,-0.13,-1.86,2,22.89
2022-06-02 13:44:01.420,1.94599628448486,0.5,4.59,0,-20.81
2022-06-02 13:44:01.534,2.05999687314034,0.41,1.13,1,-1.34
2022-06-02 13:44:01.649,2.17499323189259,-0.08,-2.42,1,19.43
2022-06-02 13:44:01.763,2.28899382054806,-0.53,-3.95,0,21.39
2022-06-02 13:44:01.878,2.40400023758411,-0.33,-0.37,0,-3.05
2022-06-02 13:44:01.992,2.51800082623959,0.11,2.35,0,-10.62
2022-06-02 13:44:02.107,2.63299718499184,0.29,1.85,-2,-4.77
2022-06-02 13:44:02.222,2.74799354374409,0.25,0.76,-2,-10.15
2022-06-02 13:44:02.337,2.86299996078014,0.02,-0.96,-2,-0.57
2022-06-02 13:44:02.451,2.97700054943562,-0.15,-1.3,-2,-1.27
2022-06-02 13:44:02.562,3.08799371123314,-0.34,-2.05,-1,1.98
2022-06-02 13:44:02.677,3.2030001282692,-0.52,-2.76,-2,9.56
2022-06-02 13:44:02.791,3.31700071692467,-0.5,-1.74,-2,-2.6
2022-06-02 13:44:02.906,3.43199707567692,-0.25,0.14,-2,-9.42
2022-06-02 13:44:03.021,3.54699343442917,0.16,2.4,0,-18.45
2022-06-02 13:44:03.135,3.66099402308464,0.15,0.47,0,3.79
2022-06-02 13:44:03.251,3.77699621021748,-0.01,-0.69,0,4.41
2022-06-02 13:44:03.365,3.89099679887295,-0.25,-1.97,0,9.35
2022-06-02 13:44:03.480,4.0059931576252,-0.21,-0.63,0,1.15
2022-06-02 13:44:03.594,4.11999374628067,-0.19,-0.63,0,2.94
2022-06-02 13:44:03.708,4.23399433493614,-0.19,-0.66,0,3.17
2022-06-02 13:44:03.823,4.3490007519722,-0.19,-0.68,0,3.29
2022-06-02 13:44:03.934,4.45999391376972,-0.01,0.75,0,-3.85
2022-06-02 13:44:04.048,4.57399450242519,0.2,1.62,0,-6.37
2022-06-02 13:44:04.163,4.68900091946125,0.22,0.95,0,-2.06
2022-06-02 13:44:04.278,4.8039972782135,0.13,0.06,0,1.44
2022-06-02 13:44:04.393,4.91899363696575,0.01,-0.45,0,2.82
2022-06-02 13:44:04.507,5.03299422562122,0.06,0.4,0,-2.04
2022-06-02 13:44:04.622,5.14800064265728,0.06,0.25,0,-0.22
2022-06-02 13:44:04.737,5.26299700140953,0,-0.24,0,2
2022-06-02 13:44:04.851,5.376997590065,-0.03,-0.25,0,1.46
2022-06-02 13:44:04.966,5.49199394881725,0.04,0.47,0,-2.16
2022-06-02 13:44:05.081,5.60700036585331,0.24,1.79,0,-7.87
2022-06-02 13:44:05.196,5.72199672460556,0.29,1.28,0,-3.71
2022-06-02 13:44:05.306,5.8319941163063,0.24,0.65,0,-1.38
2022-06-02 13:44:05.421,5.94700053334236,0.16,0.27,0,-0.35
2022-06-02 13:44:05.535,6.06100112199783,0.21,1,0,-4.55
2022-06-02 13:44:05.650,6.17599748075008,0.23,0.94,0,-3.34
2022-06-02 13:44:05.765,6.29099383950233,0.13,0.02,0,1.06
2022-06-02 13:44:05.879,6.40499442815781,-0.01,-0.65,0,3.22
2022-06-02 13:44:05.994,6.52000084519386,-0.06,-0.44,0,1.35
2022-06-02 13:44:06.109,6.63499720394611,0.17,1.62,0,-8.66
2022-06-02 13:44:06.224,6.74999356269836,0.29,1.63,0,-6.16
2022-06-02 13:44:06.338,6.86399415135384,0.39,1.86,0,-7.43
2022-06-02 13:44:06.453,6.97900056838989,0.36,1.17,0,-3.82
2022-06-02 13:44:06.567,7.09300115704536,0.29,0.78,0,-2.93
2022-06-02 13:44:06.678,7.20399431884289,0.28,1.02,0,-4.67
2022-06-02 13:44:06.793,7.31900073587894,0.15,-0.05,0,0.89
2022-06-02 13:44:06.907,7.43300132453442,0.03,-0.4,1,1.26
2022-06-02 13:44:07.022,7.54799768328667,-0.03,-0.34,0,5.53
2022-06-02 13:44:07.137,7.66299404203892,0.19,1.69,0,-10.74
2022-06-02 13:44:07.252,7.77800045907497,0.47,2.98,0,-13.37
2022-06-02 13:44:07.366,7.89200104773045,0.47,1.74,0,-5.78
2022-06-02 13:44:07.481,8.0069974064827,0.35,0.77,0,-2.68
2022-06-02 13:44:07.595,8.12099799513817,0.18,-0.09,1,0.28
2022-06-02 13:44:07.710,8.23599435389042,0.18,0.68,0,0.29
2022-06-02 13:44:07.825,8.35100077092648,0.14,0.36,0,-3.36
2022-06-02 13:44:07.939,8.46500135958195,0.09,0.12,5,-1.34
2022-06-02 13:44:08.051,8.57700034976006,0.06,0.11,0,23.46
2022-06-02 13:44:08.165,8.69100093841553,0.31,2.26,0,-18.47
2022-06-02 13:44:08.279,8.805001527071,0.35,1.49,0,-5.44
2022-06-02 13:44:08.394,8.91999788582325,0.24,0.37,0,-0.98
2022-06-02 13:44:08.509,9.0349942445755,0.09,-0.29,0,0.81
2022-06-02 13:44:08.623,9.14899483323097,-0.03,-0.69,2,1.96
2022-06-02 13:44:08.738,9.26400125026703,0.03,0.43,1,5.91
2022-06-02 13:44:08.853,9.37899760901928,0.26,1.93,0,-7.61
2022-06-02 13:44:08.967,9.49299819767475,0.32,1.43,0,-6.93
2022-06-02 13:44:09.082,9.607994556427,0.33,1.31,0,-5.81
2022-06-02 13:44:09.197,9.72300097346306,0.22,0.3,1,-0.98
2022-06-02 13:44:09.311,9.83700156211853,0.26,1.13,0,-1.5
2022-06-02 13:44:09.422,9.94799472391605,0.37,1.83,0,-10.25
2022-06-02 13:44:09.537,10.0630011409521,0.36,1.3,0,-5.52
2022-06-02 13:44:09.651,10.1770017296076,0.3,0.87,0,-4.18
2022-06-02 13:44:09.766,10.2919980883598,0.14,-0.22,1,0.61
2022-06-02 13:44:09.881,10.4069944471121,0.23,1.24,1,-3.11
2022-06-02 13:44:09.995,10.5209950357676,0.38,2.06,0,-6.64
2022-06-02 13:44:10.111,10.6369972229004,0.44,1.91,0,-9.9
2022-06-02 13:44:10.224,10.7500020414591,0.39,1.22,0,-5.49
2022-06-02 13:44:10.340,10.8659941703081,0.37,1.27,1,-6.79
2022-06-02 13:44:10.454,10.9799947589636,0.43,1.87,1,-4.82
2022-06-02 13:44:10.569,11.0950011759996,0.55,2.52,1,-8.7
2022-06-02 13:44:10.683,11.2090017646551,0.52,1.84,0,-4.56
2022-06-02 13:44:10.798,11.3239981234074,0.4,0.92,0,-5.91
2022-06-02 13:44:10.909,11.4350013434887,0.33,0.9,0,-5.83
2022-06-02 13:44:11.024,11.5499977022409,0.4,1.8,0,-10.4
2022-06-02 13:44:11.138,11.6639982908964,0.59,3.02,0,-15.5
2022-06-02 13:44:11.253,11.7789946496487,0.56,1.93,0,-8.74
2022-06-02 13:44:11.367,11.8929952383041,0.48,1.41,1,-7.74
2022-06-02 13:44:11.482,12.0080016553402,0.38,0.96,0,-1.28
2022-06-02 13:44:11.597,12.1229980140924,0.5,2.38,0,-15.31
2022-06-02 13:44:11.711,12.2369986027479,0.57,2.44,0,-12.65
2022-06-02 13:44:11.826,12.3519949615002,0.49,1.49,0,-8.03
2022-06-02 13:44:11.941,12.4670013785362,0.38,0.94,0,-6.64
2022-06-02 13:44:12.055,12.5810019671917,0.26,0.42,0,-4.86
2022-06-02 13:44:12.169,12.6950025558472,0.35,1.72,0,-12.12
2022-06-02 13:44:12.280,12.8059957176447,0.44,1.98,0,-11.87
2022-06-02 13:44:12.396,12.9219979047775,0.5,2.16,0,-12.58
2022-06-02 13:44:12.510,13.035998493433,0.46,1.48,0,-9.15
2022-06-02 13:44:12.625,13.1509948521852,0.49,1.96,0,-12.6
2022-06-02 13:44:12.739,13.2649954408407,0.62,2.82,2,-16.43
